,,PA_Meas_PMT16A,,PR_Meas_QMR101_102,,RH_Meas_QMH101,,SR_Meas_QMS101,,TA_Meas_QMH101,,GenWind,,GenWind,
time,status,PA,status,PR,status,RH,status,SR,status,TA,status,DirAvg,status,SpdAvg,
2011-06-05, 00:00:04,VALID,917.887,VALID,0,VALID,96.055,VALID,0,VALID,20.3869,VALID,6,VALID,0.565625,
2011-06-05, 00:01:04,VALID,917.867,VALID,0,VALID,96.0017,VALID,0,VALID,20.3238,VALID,5,VALID,0.226953,
2011-06-05, 00:02:04,VALID,917.877,VALID,0,VALID,96.055,VALID,0,VALID,20.3448,VALID,5,VALID,0.511328,
2011-06-05, 00:03:04,VALID,917.867,VALID,0,VALID,96.0855,VALID,0,VALID,20.3643,VALID,5,VALID,0.402344,
2011-06-05, 00:04:04,VALID,917.832,VALID,0,VALID,96.0703,VALID,0,VALID,20.3448,VALID,5,VALID,0.353906,
2011-06-05, 00:05:04,VALID,917.867,VALID,0,VALID,96.0703,VALID,0,VALID,20.3464,VALID,5,VALID,0.419531,
2011-06-05, 00:06:04,VALID,917.849,VALID,0,VALID,96.0855,VALID,0,VALID,20.3464,VALID,5,VALID,0.388281,
2011-06-05, 00:07:04,VALID,917.831,VALID,0,VALID,96.0322,VALID,0,VALID,20.3058,VALID,5,VALID,0.589844,
2011-06-05, 00:08:04,VALID,917.819,VALID,0,VALID,96.0322,VALID,0,VALID,20.2863,VALID,6,VALID,0.330469,
2011-06-05, 00:09:04,VALID,917.801,VALID,0,VALID,96.0474,VALID,0,VALID,20.2879,VALID,6,VALID,0,
2011-06-05, 00:10:04,VALID,917.748,VALID,0,VALID,96.0703,VALID,0.107441,VALID,20.2863,VALID,5,VALID,0,
2011-06-05, 00:11:04,VALID,917.764,VALID,0,VALID,96.055,VALID,0,VALID,20.2879,VALID,5,VALID,0,
2011-06-05, 00:12:04,VALID,917.721,VALID,0,VALID,96.0932,VALID,0,VALID,20.3074,VALID,5,VALID,0,
2011-06-05, 00:13:04,VALID,917.7,VALID,0,VALID,96.1313,VALID,0,VALID,20.3074,VALID,5,VALID,0,
2011-06-05, 00:14:04,VALID,917.694,VALID,0,VALID,96.1541,VALID,0,VALID,20.3269,VALID,5,VALID,0.273828,
2011-06-05, 00:15:04,VALID,917.67,VALID,0,VALID,96.2228,VALID,0,VALID,20.3269,VALID,5,VALID,0.207422,
2011-06-05, 00:16:04,VALID,917.67,VALID,0,VALID,96.1923,VALID,0,VALID,20.4064,VALID,6,VALID,0.253516,
2011-06-05, 00:17:04,VALID,917.65,VALID,0,VALID,96.1694,VALID,0,VALID,20.3854,VALID,5,VALID,0,
2011-06-05, 00:18:04,VALID,917.643,VALID,0,VALID,96.1846,VALID,0,VALID,20.3854,VALID,5,VALID,0.00429688,
2011-06-05, 00:19:04,VALID,917.623,VALID,0,VALID,96.1389,VALID,0,VALID,20.4049,VALID,5,VALID,0,
2011-06-05, 00:20:04,VALID,917.617,VALID,0,VALID,96.0474,VALID,0,VALID,20.3659,VALID,5,VALID,0,
2011-06-05, 00:21:04,VALID,917.614,VALID,0,VALID,96.0398,VALID,0,VALID,20.3464,VALID,5,VALID,0.00820312,
2011-06-05, 00:22:04,VALID,917.575,VALID,0,VALID,96.0398,VALID,0,VALID,20.3659,VALID,5,VALID,0.191797,
2011-06-05, 00:23:04,VALID,917.592,VALID,0,VALID,96.0474,VALID,0,VALID,20.3448,VALID,5,VALID,0,
2011-06-05, 00:24:04,VALID,917.541,VALID,0,VALID,96.0398,VALID,0,VALID,20.3448,VALID,5,VALID,0,
2011-06-05, 00:25:04,VALID,917.554,VALID,0,VALID,96.0093,VALID,0,VALID,20.3659,VALID,5,VALID,0,
2011-06-05, 00:26:04,VALID,917.5,VALID,0,VALID,95.9941,VALID,0,VALID,20.3464,VALID,5,VALID,0,
2011-06-05, 00:27:04,VALID,917.497,VALID,0,VALID,95.9788,VALID,0,VALID,20.3269,VALID,5,VALID,0.287109,
2011-06-05, 00:28:04,VALID,917.457,VALID,0,VALID,96.1084,VALID,0,VALID,20.3659,VALID,5,VALID,0.334375,
2011-06-05, 00:29:04,VALID,917.413,VALID,0,VALID,95.9712,VALID,0,VALID,20.3448,VALID,5,VALID,0.588281,
2011-06-05, 00:30:04,VALID,917.419,VALID,0,VALID,95.8645,VALID,0,VALID,20.3074,VALID,5,VALID,0.530078,
2011-06-05, 00:31:04,VALID,917.376,VALID,0,VALID,95.8416,VALID,0,VALID,20.3269,VALID,5,VALID,0.356641,
2011-06-05, 00:32:04,VALID,917.337,VALID,0,VALID,95.8111,VALID,0,VALID,20.3269,VALID,5,VALID,0.268359,
2011-06-05, 00:33:04,VALID,917.333,VALID,0,VALID,95.834,VALID,0,VALID,20.3074,VALID,5,VALID,0,
2011-06-05, 00:34:04,VALID,917.32,VALID,0,VALID,95.8035,VALID,0,VALID,20.3074,VALID,5,VALID,0,
2011-06-05, 00:35:04,VALID,917.281,VALID,0,VALID,95.7958,VALID,0,VALID,20.2879,VALID,5,VALID,0,
2011-06-05, 00:36:04,VALID,917.28,VALID,0,VALID,95.773,VALID,0,VALID,20.2684,VALID,5,VALID,0.30625,
2011-06-05, 00:37:04,VALID,917.259,VALID,0,VALID,95.7349,VALID,0,VALID,20.2684,VALID,5,VALID,0.294531,
2011-06-05, 00:38:04,VALID,917.248,VALID,0,VALID,95.7577,VALID,0,VALID,20.2473,VALID,5,VALID,0.210938,
2011-06-05, 00:39:04,VALID,917.27,VALID,0,VALID,95.8035,VALID,0,VALID,20.2489,VALID,5,VALID,0.162109,
2011-06-05, 00:40:04,VALID,917.255,VALID,0,VALID,95.8111,VALID,0,VALID,20.2489,VALID,5,VALID,0.558594,
2011-06-05, 00:41:04,VALID,917.282,VALID,0,VALID,95.8416,VALID,0,VALID,20.2098,VALID,5,VALID,0.689062,
2011-06-05, 00:42:04,VALID,917.259,VALID,0,VALID,95.8873,VALID,0,VALID,20.1903,VALID,5,VALID,0.936719,
2011-06-05, 00:43:04,VALID,917.248,VALID,0,VALID,95.895,VALID,0,VALID,20.1903,VALID,5,VALID,1.03906,
2011-06-05, 00:44:04,VALID,917.242,VALID,0,VALID,95.9102,VALID,0,VALID,20.1498,VALID,5,VALID,1.04883,
2011-06-05, 00:45:04,VALID,917.233,VALID,0,VALID,95.9407,VALID,0,VALID,20.1303,VALID,5,VALID,0.907031,
2011-06-05, 00:46:04,VALID,917.228,VALID,0,VALID,95.9559,VALID,0,VALID,20.1498,VALID,5,VALID,0.808984,
2011-06-05, 00:47:04,VALID,917.218,VALID,0,VALID,95.9407,VALID,0,VALID,20.1708,VALID,5,VALID,0.580469,
2011-06-05, 00:48:04,VALID,917.185,VALID,0,VALID,95.9636,VALID,0,VALID,20.1708,VALID,9,VALID,0.820703,
2011-06-05, 00:49:04,VALID,917.176,VALID,0,VALID,95.9788,VALID,0,VALID,20.1708,VALID,54,VALID,0.658984,
2011-06-05, 00:50:04,VALID,917.177,VALID,0,VALID,96.0017,VALID,0,VALID,20.1498,VALID,54,VALID,0.874219,
2011-06-05, 00:51:04,VALID,917.163,VALID,0,VALID,96.0093,VALID,0,VALID,20.1708,VALID,54,VALID,0.623438,
2011-06-05, 00:52:04,VALID,917.139,VALID,0,VALID,96.0627,VALID,0,VALID,20.1498,VALID,54,VALID,0.760547,
2011-06-05, 00:53:04,VALID,917.128,VALID,0,VALID,96.0779,VALID,0,VALID,20.1513,VALID,54,VALID,0.570313,
2011-06-05, 00:54:04,VALID,917.101,VALID,0,VALID,96.1008,VALID,0,VALID,20.1108,VALID,54,VALID,0.623438,
2011-06-05, 00:55:04,VALID,917.124,VALID,0,VALID,96.1541,VALID,0,VALID,20.1318,VALID,54,VALID,0.505469,
2011-06-05, 00:56:04,VALID,917.073,VALID,0,VALID,96.1999,VALID,0,VALID,20.1513,VALID,54,VALID,0.677734,
2011-06-05, 00:57:04,VALID,917.043,VALID,0.2,VALID,96.2837,VALID,0,VALID,20.1318,VALID,54,VALID,0.654688,
2011-06-05, 00:58:04,VALID,917.016,VALID,0,VALID,96.3066,VALID,0,VALID,20.1513,VALID,54,VALID,0.358203,
2011-06-05, 00:59:04,VALID,916.989,VALID,0,VALID,96.36,VALID,0,VALID,20.1513,VALID,54,VALID,0.465234,
2011-06-05, 01:00:04,VALID,916.951,VALID,0,VALID,96.3829,VALID,0,VALID,20.1318,VALID,54,VALID,0.398047,
2011-06-05, 01:01:04,VALID,916.954,VALID,0,VALID,96.4591,VALID,0,VALID,20.1513,VALID,54,VALID,0.314453,
2011-06-05, 01:02:04,VALID,916.936,VALID,0,VALID,96.4819,VALID,0,VALID,20.1513,VALID,54,VALID,0.176563,
2011-06-05, 01:03:04,VALID,916.938,VALID,0.2,VALID,96.4667,VALID,0,VALID,20.1513,VALID,54,VALID,0.494922,
2011-06-05, 01:04:04,VALID,916.94,VALID,0,VALID,96.5429,VALID,0,VALID,20.1303,VALID,54,VALID,0.657031,
2011-06-05, 01:05:04,VALID,916.917,VALID,0,VALID,96.5277,VALID,0,VALID,20.1513,VALID,55,VALID,0.552344,
2011-06-05, 01:06:04,VALID,916.927,VALID,0,VALID,96.5201,VALID,0,VALID,20.1318,VALID,54,VALID,0.517187,
2011-06-05, 01:07:04,VALID,916.877,VALID,0,VALID,96.5201,VALID,0,VALID,20.1123,VALID,54,VALID,0.536328,
2011-06-05, 01:08:04,VALID,916.916,VALID,0,VALID,96.5658,VALID,0,VALID,20.0928,VALID,54,VALID,0.758984,
2011-06-05, 01:09:04,VALID,916.909,VALID,0.2,VALID,96.6497,VALID,0,VALID,20.1318,VALID,54,VALID,0.852734,
2011-06-05, 01:10:04,VALID,916.91,VALID,0,VALID,96.5811,VALID,0,VALID,20.0928,VALID,54,VALID,0.538281,
2011-06-05, 01:11:04,VALID,916.921,VALID,0,VALID,96.6039,VALID,0,VALID,20.0928,VALID,54,VALID,0.0632813,
2011-06-05, 01:12:04,VALID,916.908,VALID,0,VALID,96.6344,VALID,0,VALID,20.0928,VALID,54,VALID,0.213281,
2011-06-05, 01:13:04,VALID,916.917,VALID,0.2,VALID,96.7107,VALID,0,VALID,20.1123,VALID,54,VALID,0.408203,
2011-06-05, 01:14:04,VALID,916.914,VALID,0,VALID,96.6649,VALID,0,VALID,20.1318,VALID,54,VALID,0.322266,
2011-06-05, 01:15:04,VALID,916.915,VALID,0,VALID,96.7183,VALID,0,VALID,20.1318,VALID,54,VALID,0,
2011-06-05, 01:16:04,VALID,916.933,VALID,0,VALID,96.7259,VALID,0,VALID,20.1693,VALID,54,VALID,0,
2011-06-05, 01:17:04,VALID,916.907,VALID,0,VALID,96.7411,VALID,0,VALID,20.2098,VALID,54,VALID,0,
2011-06-05, 01:18:04,VALID,916.934,VALID,0.2,VALID,96.7564,VALID,0,VALID,20.2293,VALID,54,VALID,0,
2011-06-05, 01:19:04,VALID,916.944,VALID,0,VALID,96.7793,VALID,0,VALID,20.2489,VALID,54,VALID,0,
2011-06-05, 01:20:04,VALID,916.941,VALID,0,VALID,96.7183,VALID,0,VALID,20.1888,VALID,54,VALID,0,
2011-06-05, 01:21:04,VALID,916.965,VALID,0,VALID,96.6878,VALID,0,VALID,20.1318,VALID,54,VALID,0.422266,
2011-06-05, 01:22:04,VALID,916.955,VALID,0,VALID,96.6344,VALID,0,VALID,20.1123,VALID,54,VALID,0.474219,
2011-06-05, 01:23:04,VALID,916.982,VALID,0,VALID,96.6573,VALID,0,VALID,20.0928,VALID,54,VALID,0.547656,
2011-06-05, 01:24:04,VALID,916.977,VALID,0,VALID,96.6649,VALID,0,VALID,20.0523,VALID,54,VALID,0.664453,
2011-06-05, 01:25:04,VALID,916.968,VALID,0,VALID,96.6573,VALID,0,VALID,20.0523,VALID,54,VALID,0.561328,
2011-06-05, 01:26:04,VALID,916.973,VALID,0,VALID,96.6954,VALID,0,VALID,20.0343,VALID,54,VALID,0.546875,
2011-06-05, 01:27:04,VALID,916.988,VALID,0,VALID,96.703,VALID,0,VALID,20.0343,VALID,54,VALID,0.298047,
2011-06-05, 01:28:04,VALID,916.984,VALID,0,VALID,96.7411,VALID,0,VALID,20.0538,VALID,54,VALID,0.385938,
2011-06-05, 01:29:04,VALID,916.984,VALID,0,VALID,96.7411,VALID,0,VALID,20.0733,VALID,54,VALID,0.509375,
2011-06-05, 01:30:04,VALID,916.977,VALID,0.2,VALID,96.7335,VALID,0,VALID,20.0749,VALID,54,VALID,0.316016,
2011-06-05, 01:31:04,VALID,916.966,VALID,0,VALID,96.7488,VALID,0,VALID,20.0538,VALID,54,VALID,0.24375,
2011-06-05, 01:32:04,VALID,916.958,VALID,0,VALID,96.7716,VALID,0,VALID,20.0538,VALID,54,VALID,0.377344,
2011-06-05, 01:33:04,VALID,916.944,VALID,0,VALID,96.7564,VALID,0,VALID,20.0538,VALID,54,VALID,0.448438,
2011-06-05, 01:34:04,VALID,916.976,VALID,0,VALID,96.7793,VALID,0,VALID,20.0538,VALID,54,VALID,0.219141,
2011-06-05, 01:35:04,VALID,916.923,VALID,0,VALID,96.7716,VALID,0,VALID,20.0538,VALID,55,VALID,0.237109,
2011-06-05, 01:36:04,VALID,916.933,VALID,0,VALID,96.7945,VALID,0,VALID,20.0343,VALID,54,VALID,0.428125,
2011-06-05, 01:37:04,VALID,916.92,VALID,0,VALID,96.8098,VALID,0,VALID,20.0538,VALID,54,VALID,0.263281,
2011-06-05, 01:38:04,VALID,916.923,VALID,0,VALID,96.8098,VALID,0,VALID,20.0733,VALID,54,VALID,0.31875,
2011-06-05, 01:39:04,VALID,916.892,VALID,0,VALID,96.8174,VALID,0,VALID,20.0749,VALID,54,VALID,0.211328,
2011-06-05, 01:40:04,VALID,916.899,VALID,0.2,VALID,96.8403,VALID,0,VALID,20.0733,VALID,54,VALID,0,
2011-06-05, 01:41:04,VALID,916.849,VALID,0,VALID,96.8555,VALID,0,VALID,20.0928,VALID,54,VALID,0,
2011-06-05, 01:42:04,VALID,916.834,VALID,0,VALID,96.8631,VALID,0,VALID,20.0733,VALID,54,VALID,0,
2011-06-05, 01:43:04,VALID,916.841,VALID,0,VALID,96.8707,VALID,0,VALID,20.1123,VALID,54,VALID,0,
2011-06-05, 01:44:04,VALID,916.852,VALID,0,VALID,96.8936,VALID,0,VALID,20.1123,VALID,54,VALID,0,
2011-06-05, 01:45:04,VALID,916.826,VALID,0,VALID,96.8707,VALID,0,VALID,20.1349,VALID,54,VALID,0,
2011-06-05, 01:46:04,VALID,916.84,VALID,0,VALID,96.8631,VALID,0,VALID,20.0928,VALID,54,VALID,0,
2011-06-05, 01:47:04,VALID,916.853,VALID,0,VALID,96.8707,VALID,0,VALID,20.0733,VALID,54,VALID,0,
2011-06-05, 01:48:04,VALID,916.846,VALID,0,VALID,96.886,VALID,0,VALID,20.0733,VALID,54,VALID,0,
2011-06-05, 01:49:04,VALID,916.843,VALID,0,VALID,96.8707,VALID,0,VALID,20.0733,VALID,54,VALID,0,
2011-06-05, 01:50:04,VALID,916.834,VALID,0,VALID,96.9089,VALID,0,VALID,20.1139,VALID,54,VALID,0,
2011-06-05, 01:51:04,VALID,916.831,VALID,0,VALID,96.9089,VALID,0,VALID,20.0928,VALID,54,VALID,0,
2011-06-05, 01:52:04,VALID,916.835,VALID,0,VALID,96.9089,VALID,0,VALID,20.0928,VALID,54,VALID,0,
2011-06-05, 01:53:04,VALID,916.835,VALID,0.2,VALID,96.9089,VALID,0,VALID,20.1123,VALID,54,VALID,0.10625,
2011-06-05, 01:54:04,VALID,916.849,VALID,0,VALID,96.9241,VALID,0,VALID,20.0928,VALID,54,VALID,0.349219,
2011-06-05, 01:55:04,VALID,916.827,VALID,0,VALID,96.9012,VALID,0,VALID,20.0733,VALID,54,VALID,0.659766,
2011-06-05, 01:56:04,VALID,916.828,VALID,0,VALID,96.9089,VALID,0,VALID,20.0538,VALID,54,VALID,0.591016,
2011-06-05, 01:57:04,VALID,916.866,VALID,0,VALID,96.9089,VALID,0,VALID,20.0343,VALID,54,VALID,0.760938,
2011-06-05, 01:58:04,VALID,916.841,VALID,0.2,VALID,96.9241,VALID,0,VALID,20.0343,VALID,54,VALID,0.638672,
2011-06-05, 01:59:04,VALID,916.842,VALID,0,VALID,96.9241,VALID,0,VALID,20.0553,VALID,54,VALID,0.760547,
2011-06-05, 02:00:04,VALID,916.838,VALID,0,VALID,96.9241,VALID,0,VALID,20.0343,VALID,54,VALID,0.680078,
2011-06-05, 02:01:04,VALID,916.82,VALID,0,VALID,96.9241,VALID,0,VALID,20.0538,VALID,54,VALID,0.671094,
2011-06-05, 02:02:04,VALID,916.791,VALID,0,VALID,96.9241,VALID,0,VALID,20.0343,VALID,54,VALID,1.01758,
2011-06-05, 02:03:04,VALID,916.799,VALID,0,VALID,96.9317,VALID,0,VALID,20.0343,VALID,54,VALID,0.759766,
2011-06-05, 02:04:04,VALID,916.801,VALID,0,VALID,96.9317,VALID,0,VALID,20.0148,VALID,54,VALID,0.614453,
2011-06-05, 02:05:04,VALID,916.771,VALID,0,VALID,96.9394,VALID,0,VALID,19.9938,VALID,54,VALID,0.421094,
2011-06-05, 02:06:04,VALID,916.744,VALID,0,VALID,96.947,VALID,0,VALID,20.0343,VALID,54,VALID,0.445313,
2011-06-05, 02:07:04,VALID,916.74,VALID,0,VALID,96.9622,VALID,0,VALID,20.0343,VALID,54,VALID,0.0546875,
2011-06-05, 02:08:04,VALID,916.713,VALID,0,VALID,96.9546,VALID,0,VALID,20.0343,VALID,54,VALID,0.0734375,
2011-06-05, 02:09:04,VALID,916.676,VALID,0.2,VALID,96.9851,VALID,0,VALID,20.0538,VALID,54,VALID,0.0699219,
2011-06-05, 02:10:04,VALID,916.694,VALID,0,VALID,96.9927,VALID,0,VALID,20.0538,VALID,54,VALID,0,
2011-06-05, 02:11:04,VALID,916.678,VALID,0,VALID,97.008,VALID,0,VALID,20.0523,VALID,54,VALID,0,
2011-06-05, 02:12:04,VALID,916.696,VALID,0,VALID,96.9851,VALID,0,VALID,20.0928,VALID,54,VALID,0,
2011-06-05, 02:13:04,VALID,916.696,VALID,0,VALID,97.0003,VALID,0,VALID,20.1123,VALID,54,VALID,0,
2011-06-05, 02:14:04,VALID,916.698,VALID,0,VALID,97.008,VALID,0,VALID,20.0928,VALID,54,VALID,0,
2011-06-05, 02:15:04,VALID,916.717,VALID,0,VALID,97.0232,VALID,0,VALID,20.0928,VALID,54,VALID,0,
2011-06-05, 02:16:04,VALID,916.715,VALID,0,VALID,97.0003,VALID,0,VALID,20.1123,VALID,54,VALID,0.0703125,
2011-06-05, 02:17:04,VALID,916.73,VALID,0,VALID,96.9927,VALID,0,VALID,20.1123,VALID,54,VALID,0.376563,
2011-06-05, 02:18:04,VALID,916.697,VALID,0,VALID,97.0232,VALID,0,VALID,20.1318,VALID,54,VALID,0.459375,
2011-06-05, 02:19:04,VALID,916.717,VALID,0,VALID,97.0232,VALID,0,VALID,20.1513,VALID,54,VALID,0.422266,
2011-06-05, 02:20:04,VALID,916.687,VALID,0,VALID,97.0156,VALID,0,VALID,20.1318,VALID,54,VALID,0.367578,
2011-06-05, 02:21:04,VALID,916.684,VALID,0,VALID,97.0156,VALID,0,VALID,20.1513,VALID,54,VALID,0.395703,
2011-06-05, 02:22:04,VALID,916.65,VALID,0,VALID,97.008,VALID,0,VALID,20.1318,VALID,54,VALID,0.390234,
2011-06-05, 02:23:04,VALID,916.677,VALID,0,VALID,97.0232,VALID,0,VALID,20.0928,VALID,54,VALID,0.390234,
2011-06-05, 02:24:04,VALID,916.652,VALID,0,VALID,97.0461,VALID,0,VALID,20.0733,VALID,54,VALID,0.321875,
2011-06-05, 02:25:04,VALID,916.627,VALID,0,VALID,97.0232,VALID,0,VALID,20.0928,VALID,54,VALID,0.363281,
2011-06-05, 02:26:04,VALID,916.592,VALID,0,VALID,97.0232,VALID,0,VALID,20.1123,VALID,54,VALID,0.340234,
2011-06-05, 02:27:04,VALID,916.588,VALID,0,VALID,97.0308,VALID,0,VALID,20.1334,VALID,54,VALID,0.345313,
2011-06-05, 02:28:04,VALID,916.587,VALID,0,VALID,97.0537,VALID,0,VALID,20.1123,VALID,54,VALID,0.469141,
2011-06-05, 02:29:04,VALID,916.551,VALID,0,VALID,97.0461,VALID,0,VALID,20.1318,VALID,54,VALID,0.673828,
2011-06-05, 02:30:04,VALID,916.533,VALID,0,VALID,97.0385,VALID,0,VALID,20.1139,VALID,54,VALID,0.45625,
2011-06-05, 02:31:04,VALID,916.508,VALID,0,VALID,97.0385,VALID,0,VALID,20.1318,VALID,54,VALID,0.456641,
2011-06-05, 02:32:04,VALID,916.517,VALID,0,VALID,97.0537,VALID,0,VALID,20.1318,VALID,54,VALID,0.348828,
2011-06-05, 02:33:04,VALID,916.509,VALID,0,VALID,97.0613,VALID,0,VALID,20.1513,VALID,54,VALID,0,
2011-06-05, 02:34:04,VALID,916.507,VALID,0,VALID,97.0613,VALID,0,VALID,20.1318,VALID,54,VALID,0,
2011-06-05, 02:35:04,VALID,916.524,VALID,0,VALID,97.0766,VALID,0,VALID,20.1513,VALID,54,VALID,0,
2011-06-05, 02:36:04,VALID,916.497,VALID,0,VALID,97.0766,VALID,0,VALID,20.1498,VALID,54,VALID,0,
2011-06-05, 02:37:04,VALID,916.502,VALID,0,VALID,97.0918,VALID,0,VALID,20.2098,VALID,54,VALID,0,
2011-06-05, 02:38:04,VALID,916.51,VALID,0,VALID,97.0994,VALID,0,VALID,20.2098,VALID,54,VALID,0,
2011-06-05, 02:39:04,VALID,916.489,VALID,0,VALID,97.0918,VALID,0,VALID,20.2293,VALID,54,VALID,0,
2011-06-05, 02:40:04,VALID,916.483,VALID,0,VALID,97.0918,VALID,0,VALID,20.2098,VALID,54,VALID,0,
2011-06-05, 02:41:04,VALID,916.452,VALID,0,VALID,97.0842,VALID,0,VALID,20.1903,VALID,54,VALID,0,
2011-06-05, 02:42:04,VALID,916.475,VALID,0,VALID,97.0766,VALID,0,VALID,20.1903,VALID,54,VALID,0,
2011-06-05, 02:43:04,VALID,916.448,VALID,0,VALID,97.0994,VALID,0,VALID,20.1708,VALID,54,VALID,0,
2011-06-05, 02:44:04,VALID,916.445,VALID,0,VALID,97.0918,VALID,0,VALID,20.1513,VALID,54,VALID,0,
2011-06-05, 02:45:04,VALID,916.442,VALID,0,VALID,97.0842,VALID,0,VALID,20.0913,VALID,54,VALID,0.416016,
2011-06-05, 02:46:04,VALID,916.432,VALID,0,VALID,97.069,VALID,0,VALID,20.0928,VALID,54,VALID,0.660547,
2011-06-05, 02:47:04,VALID,916.441,VALID,0,VALID,97.0766,VALID,0,VALID,20.0133,VALID,54,VALID,0.602734,
2011-06-05, 02:48:04,VALID,916.397,VALID,0,VALID,97.069,VALID,0,VALID,20.0538,VALID,54,VALID,0.711328,
2011-06-05, 02:49:04,VALID,916.414,VALID,0,VALID,97.069,VALID,0,VALID,20.0133,VALID,54,VALID,0.642187,
2011-06-05, 02:50:04,VALID,916.38,VALID,0,VALID,97.0613,VALID,0,VALID,20.0343,VALID,54,VALID,0.685547,
2011-06-05, 02:51:04,VALID,916.407,VALID,0,VALID,97.0613,VALID,0,VALID,20.0343,VALID,54,VALID,0.2,
2011-06-05, 02:52:04,VALID,916.362,VALID,0,VALID,97.0766,VALID,0,VALID,20.0538,VALID,54,VALID,0,
2011-06-05, 02:53:04,VALID,916.384,VALID,0,VALID,97.0613,VALID,0,VALID,20.0328,VALID,54,VALID,0.00429688,
2011-06-05, 02:54:04,VALID,916.379,VALID,0,VALID,97.069,VALID,0,VALID,20.0538,VALID,54,VALID,0,
2011-06-05, 02:55:05,VALID,916.363,VALID,0,VALID,97.0766,VALID,0,VALID,20.0343,VALID,54,VALID,0.235938,
2011-06-05, 02:56:05,VALID,916.389,VALID,0,VALID,97.0461,VALID,0,VALID,20.0133,VALID,54,VALID,0.208203,
2011-06-05, 02:57:05,VALID,916.327,VALID,0,VALID,97.069,VALID,0,VALID,20.0538,VALID,54,VALID,0.155078,
2011-06-05, 02:58:05,VALID,916.359,VALID,0,VALID,97.0537,VALID,0,VALID,20.0343,VALID,54,VALID,0.121094,
2011-06-05, 02:59:05,VALID,916.322,VALID,0,VALID,97.0537,VALID,0,VALID,20.0343,VALID,54,VALID,0.424609,
2011-06-05, 03:00:05,VALID,916.328,VALID,0,VALID,97.0461,VALID,0,VALID,20.0148,VALID,54,VALID,0.464844,
2011-06-05, 03:01:05,VALID,916.322,VALID,0,VALID,97.0385,VALID,0,VALID,20.0343,VALID,54,VALID,0.332422,
2011-06-05, 03:02:05,VALID,916.316,VALID,0,VALID,97.0461,VALID,0,VALID,20.0538,VALID,54,VALID,0.078125,
2011-06-05, 03:03:05,VALID,916.333,VALID,0,VALID,97.0385,VALID,0,VALID,20.0538,VALID,54,VALID,0.0476562,
2011-06-05, 03:04:05,VALID,916.342,VALID,0,VALID,97.0537,VALID,0,VALID,20.0538,VALID,54,VALID,0.0488281,
2011-06-05, 03:05:05,VALID,916.336,VALID,0,VALID,97.0308,VALID,0,VALID,20.0343,VALID,54,VALID,0.450391,
2011-06-05, 03:06:05,VALID,916.329,VALID,0,VALID,97.0156,VALID,0,VALID,20.0538,VALID,54,VALID,0.328906,
2011-06-05, 03:07:05,VALID,916.298,VALID,0,VALID,97.0385,VALID,0,VALID,20.0749,VALID,54,VALID,0.11875,
2011-06-05, 03:08:05,VALID,916.267,VALID,0,VALID,97.0385,VALID,0,VALID,20.0538,VALID,54,VALID,0,
2011-06-05, 03:09:05,VALID,916.284,VALID,0,VALID,97.0461,VALID,0,VALID,20.0523,VALID,54,VALID,0,
2011-06-05, 03:10:05,VALID,916.245,VALID,0,VALID,97.0308,VALID,0,VALID,20.0928,VALID,54,VALID,0,
2011-06-05, 03:11:05,VALID,916.198,VALID,0,VALID,97.0385,VALID,0,VALID,20.0928,VALID,54,VALID,0,
2011-06-05, 03:12:05,VALID,916.191,VALID,0,VALID,97.0308,VALID,0,VALID,20.1123,VALID,54,VALID,0,
2011-06-05, 03:13:05,VALID,916.162,VALID,0,VALID,97.0461,VALID,0,VALID,20.1123,VALID,54,VALID,0,
2011-06-05, 03:14:05,VALID,916.146,VALID,0,VALID,97.0461,VALID,0,VALID,20.1123,VALID,54,VALID,0,
2011-06-05, 03:15:05,VALID,916.158,VALID,0,VALID,97.0613,VALID,0,VALID,20.1123,VALID,54,VALID,0.266797,
2011-06-05, 03:16:05,VALID,916.18,VALID,0,VALID,97.0308,VALID,0,VALID,20.0928,VALID,54,VALID,0.315234,
2011-06-05, 03:17:05,VALID,916.17,VALID,0,VALID,97.0156,VALID,0,VALID,20.0733,VALID,54,VALID,0,
2011-06-05, 03:18:05,VALID,916.152,VALID,0,VALID,97.0003,VALID,0,VALID,20.0733,VALID,54,VALID,0.0015625,
2011-06-05, 03:19:05,VALID,916.196,VALID,0,VALID,96.9927,VALID,0,VALID,20.0538,VALID,54,VALID,0.278906,
2011-06-05, 03:20:05,VALID,916.182,VALID,0,VALID,96.9851,VALID,0,VALID,20.0749,VALID,54,VALID,0,
2011-06-05, 03:21:05,VALID,916.192,VALID,0,VALID,96.9851,VALID,0,VALID,20.0538,VALID,54,VALID,0.342578,
2011-06-05, 03:22:05,VALID,916.182,VALID,0,VALID,96.9851,VALID,0,VALID,20.0133,VALID,54,VALID,0.330469,
2011-06-05, 03:23:05,VALID,916.183,VALID,0,VALID,96.9775,VALID,0,VALID,20.0343,VALID,54,VALID,0.0660156,
2011-06-05, 03:24:05,VALID,916.147,VALID,0,VALID,96.9775,VALID,0,VALID,20.0343,VALID,54,VALID,0,
2011-06-05, 03:25:05,VALID,916.167,VALID,0,VALID,96.9394,VALID,0,VALID,20.0148,VALID,54,VALID,0,
2011-06-05, 03:26:05,VALID,916.17,VALID,0,VALID,96.9394,VALID,0,VALID,20.0148,VALID,54,VALID,0,
2011-06-05, 03:27:05,VALID,916.178,VALID,0,VALID,96.947,VALID,0,VALID,20.0148,VALID,54,VALID,0,
2011-06-05, 03:28:05,VALID,916.115,VALID,0,VALID,96.9622,VALID,0,VALID,19.9953,VALID,54,VALID,0,
2011-06-05, 03:29:05,VALID,916.163,VALID,0,VALID,96.9317,VALID,0,VALID,20.0148,VALID,54,VALID,0,
2011-06-05, 03:30:05,VALID,916.145,VALID,0,VALID,96.9394,VALID,0,VALID,19.9953,VALID,54,VALID,0.377734,
2011-06-05, 03:31:05,VALID,916.123,VALID,0,VALID,96.947,VALID,0,VALID,19.9563,VALID,54,VALID,0.540625,
2011-06-05, 03:32:05,VALID,916.123,VALID,0,VALID,96.9165,VALID,0,VALID,19.9578,VALID,54,VALID,0.580859,
2011-06-05, 03:33:05,VALID,916.133,VALID,0,VALID,96.8936,VALID,0,VALID,19.8978,VALID,54,VALID,0.607422,
2011-06-05, 03:34:05,VALID,916.13,VALID,0,VALID,96.886,VALID,0,VALID,19.8783,VALID,54,VALID,0.337891,
2011-06-05, 03:35:05,VALID,916.138,VALID,0,VALID,96.9089,VALID,0,VALID,19.9173,VALID,54,VALID,0,
2011-06-05, 03:36:05,VALID,916.123,VALID,0,VALID,96.9317,VALID,0,VALID,19.9188,VALID,54,VALID,0,
2011-06-05, 03:37:05,VALID,916.122,VALID,0,VALID,96.9394,VALID,0,VALID,19.8978,VALID,54,VALID,0.0214844,
2011-06-05, 03:38:05,VALID,916.132,VALID,0,VALID,96.9394,VALID,0,VALID,19.8783,VALID,54,VALID,0.320313,
2011-06-05, 03:39:05,VALID,916.155,VALID,0,VALID,96.9317,VALID,0,VALID,19.8588,VALID,54,VALID,0.595703,
2011-06-05, 03:40:05,VALID,916.147,VALID,0,VALID,96.9317,VALID,0,VALID,19.8393,VALID,54,VALID,0.489844,
2011-06-05, 03:41:05,VALID,916.121,VALID,0,VALID,96.9546,VALID,0,VALID,19.8393,VALID,54,VALID,0.460156,
2011-06-05, 03:42:05,VALID,916.127,VALID,0,VALID,96.9622,VALID,0,VALID,19.8198,VALID,54,VALID,0.126953,
2011-06-05, 03:43:05,VALID,916.122,VALID,0,VALID,96.947,VALID,0,VALID,19.8198,VALID,54,VALID,0.0175781,
2011-06-05, 03:44:05,VALID,916.129,VALID,0,VALID,96.9622,VALID,0,VALID,19.8003,VALID,54,VALID,0,
2011-06-05, 03:45:05,VALID,916.093,VALID,0,VALID,96.9622,VALID,0.107441,VALID,19.7988,VALID,54,VALID,0,
2011-06-05, 03:46:05,VALID,916.074,VALID,0,VALID,96.9546,VALID,0.107441,VALID,19.7988,VALID,54,VALID,0.24375,
2011-06-05, 03:47:05,VALID,916.068,VALID,0,VALID,96.9775,VALID,0,VALID,19.8183,VALID,54,VALID,0.0015625,
2011-06-05, 03:48:05,VALID,916.082,VALID,0,VALID,97.0003,VALID,0,VALID,19.8183,VALID,54,VALID,0.189844,
2011-06-05, 03:49:05,VALID,916.061,VALID,0,VALID,96.9851,VALID,0,VALID,19.8183,VALID,54,VALID,0,
2011-06-05, 03:50:05,VALID,916.028,VALID,0,VALID,96.9927,VALID,0,VALID,19.8183,VALID,54,VALID,0,
2011-06-05, 03:51:05,VALID,916.041,VALID,0,VALID,96.9927,VALID,0,VALID,19.7988,VALID,54,VALID,0,